Weather History for KHSV - November, 2012

Change the Weather History Date:

Thursday, November 1, 2012

  Actual Average Record
Temperature  
Mean Temperature 48 °F 58 °F  
Max Temperature 66 °F 69 °F 84 °F (2000)
Min Temperature 29 °F 46 °F 23 °F (1990)
Degree Days  
Heating Degree Days 17 8  
Month to date heating degree days 17 8  
Since 1 July heating degree days 197 159  
Cooling Degree Days 0 1  
Month to date cooling degree days 0 1  
Year to date cooling degree days 2094 1941  
Moisture  
Dew Point 26 °F    
Average Humidity 53    
Maximum Humidity 89    
Minimum Humidity 17    
Precipitation  
Precipitation 0.00 in 0.15 in 2.72 in (1999)
Month to date precipitation 0.00 0.15  
Year to date precipitation 43.46 43.78  
Snow  
Snow 0.00 in - - ()
Month to date snowfall 0.0  
Since 1 July snowfall 0.0  
Since 1 September snowfall 0.0  
Snow Depth 0.00 in    
Sea Level Pressure  
Sea Level Pressure 30.00 in    
Wind  
Wind Speed 3 mph (West)    
Max Wind Speed 10 mph    
Max Gust Speed 16 mph    
Visibility 10 miles    
Events      
T = Trace of Precipitation, MM = Missing Value Source: NWS Daily Summary

Daily Weather History Graph

Daily Weather History Graph

Search for Another Location

Airport or City:

Trip Planner

Search our weather history database for the weather conditions in past years. The results will help you decide how hot, cold, wet, or windy it might be!

Date:

Astronomy

Nov. 01, 2012 Rise Set
Actual Time 7:08 AM CDT 5:52 PM CDT
Civil Twilight 6:41 AM CDT 6:18 PM CDT
Nautical Twilight 6:12 AM CDT 6:48 PM CDT
Astronomical Twilight 5:42 AM CDT 7:18 PM CDT
Moon 7:54 PM CDT (11/1) 9:35 AM CDT (11/1)
Length of Visible Light 11h 37m
Length of Day
10h 44m
Waning Gibbous, 93% of the Moon is Illuminated
Nov 1
Waning Gibbous
Nov 6
Last Quarter
Nov 13
New
Nov 20
First Quarter
Nov 28
Full

Hourly Weather History & Observations

Time (CDT) Temp. Windchill Dew Point Humidity Pressure Visibility Wind Dir Wind Speed Gust Speed Precip Events Conditions
12:53 AM 37.0 °F 31.6 °F 26.1 °F 65% 29.97 in 10.0 mi WSW 6.9 mph - N/A   Scattered Clouds
1:53 AM 35.1 °F - 27.0 °F 72% 29.97 in 10.0 mi Calm Calm - N/A   Scattered Clouds
2:53 AM 36.0 °F - 28.0 °F 73% 29.98 in 10.0 mi Calm Calm - N/A   Partly Cloudy
3:53 AM 34.0 °F - 27.0 °F 75% 29.98 in 10.0 mi Calm Calm - N/A   Clear
4:53 AM 32.0 °F - 27.0 °F 82% 29.99 in 10.0 mi Calm Calm - N/A   Clear
5:53 AM 30.9 °F - 26.1 °F 82% 30.00 in 10.0 mi Calm Calm - N/A   Clear
6:53 AM 30.9 °F - 26.1 °F 82% 30.02 in 10.0 mi Calm Calm - N/A   Clear
7:53 AM 34.0 °F - 30.0 °F 85% 30.04 in 10.0 mi Calm Calm - N/A   Clear
8:53 AM 43.0 °F - 32.0 °F 65% 30.06 in 10.0 mi Calm Calm - N/A   Clear
9:53 AM 52.0 °F - 28.9 °F 41% 30.06 in 10.0 mi Variable 3.5 mph - N/A   Partly Cloudy
10:53 AM 55.9 °F - 23.0 °F 28% 30.06 in 10.0 mi Variable 6.9 mph - N/A   Partly Cloudy
11:53 AM 60.1 °F - 19.0 °F 20% 30.06 in 10.0 mi WNW 8.1 mph - N/A   Partly Cloudy
12:53 PM 61.0 °F - 16.0 °F 17% 30.03 in 10.0 mi Variable 6.9 mph - N/A   Partly Cloudy
1:53 PM 62.1 °F - 21.0 °F 21% 30.00 in 10.0 mi West 5.8 mph - N/A   Clear
2:53 PM 64.0 °F - 21.0 °F 19% 29.99 in 10.0 mi West 4.6 mph - N/A   Clear
3:53 PM 64.9 °F - 21.9 °F 19% 29.99 in 10.0 mi West 9.2 mph - N/A   Clear
4:53 PM 64.0 °F - 21.9 °F 20% 29.98 in 10.0 mi West 5.8 mph - N/A   Clear
5:53 PM 57.0 °F - 26.1 °F 30% 29.99 in 10.0 mi West 4.6 mph - N/A   Partly Cloudy
6:53 PM 54.0 °F - 26.1 °F 34% 29.99 in 10.0 mi SW 3.5 mph - N/A   Clear
7:53 PM 50.0 °F - 30.9 °F 48% 29.99 in 10.0 mi Calm Calm - N/A   Clear
8:53 PM 46.9 °F - 32.0 °F 56% 30.00 in 10.0 mi Calm Calm - N/A   Mostly Cloudy
9:53 PM 45.0 °F - 33.1 °F 63% 30.00 in 10.0 mi Calm Calm - N/A   Partly Cloudy
10:53 PM 45.0 °F - 35.1 °F 68% 29.99 in 10.0 mi Calm Calm - N/A   Mostly Cloudy
11:53 PM 46.0 °F 44.8 °F 36.0 °F 68% 29.99 in 10.0 mi East 3.5 mph - N/A   Mostly Cloudy